STARLINK-32401, 61865

Orbit data source: Space-Track

STARLINK-32401, 61865 is a payload satellite owned by SpaceX/Seattle (US) in LEO that was launched on Thu, 07 Nov 2024 UTC via an FALCON 9 launch vehicle from the Air Force Eastern Test Range (AFETR). Payload-class satellites include a variety of spacecraft equipped with specific instruments for various scientific and technological missions. These include communications satellites like Starlink; space stations such as the ISS; scientific satellites like the Hubble; Earth observation satellites from companies like Planet Labs, Umbra, and HawkEye 360; GPS; miniature CubeSats for education and research; and military/defense satellites.

Loading next visibility...
Identifier
61865, 2024-202W
Orbit
LEO
Country
Flag of USUS
Related business
Manufacturer
SpaceX/Seattle
Mission
Operational Commercial Communications
Bus & Motor
STARLINK V2M, Unknown motor
Mass
730 kg wet, ~700 kg dry
Launch date (UTC)
2024-11-07 (2 years ago)
Launch vehicle
FALCON 9
Launch site
Air Force Eastern Test Range (AFETR)
Object type
Payload
Rocket body
Debris
Shape & HBR
Box + 2 Pan, 17.7 m
Radar Cross Section
33.884 m², Large (>1 m²)

Expand to show TLE details & history
Last TLE update: 14 hours ago

TLE from 14 hours ago
0 STARLINK-32401
1 61865U 24202W   26171.28156921  .00000182  00000-0  16148-4 0  9992
2 61865  43.0060  18.9551 0001587 269.8747  90.1922 15.27577242 91021
Epoch: 2026-06-20T06:45Z
TLE epoch observation values (Epoch: 2026-06-20T06:45:27.579Z)
Latitude
-0.00009°
Longitude
9.09165°
Altitude
482.837 km
Speed
7.626 km/s
True Right ascension
01h 15m 49s
True Declination
0° 00' 00"
Sunlit
Object was in daylight at epoch
Visualization orbit readout
Latitude
Unknown
Longitude
Unknown
Altitude
Unknown
Speed
Unknown
Apparent Right ascension
Unknown
Apparent Declination
Unknown
Sunlit
N/A
Visualization observer readout
Local Sidereal Time
07:19:05
Azimuth
Unknown
Elevation
Unknown
Doppler factor
Unknown
Orbital elements
Apogee altitude
486.091 km
Perigee altitude
483.912 km
Semi-major axis
6,863.139 km
Eccentricity
0.00016
Inclination
43.006°
RAAN
18.9551°
Arg. of periapsis
269.8747°
True anomaly
90.21039°
Mean anomaly
90.1922°
Eccentric anomaly
90.20129°
Mean motion
3.81732 °/min
Orbital period
94.31 mins
BSTAR
0.000016148
Loading maneuver chart data...
Computing Atmospheric mass density...
Loading historical data...
Loading historical data...
Loading historical data...
Loading historical data...
Loading historical data...
Loading historical data...
Loading historical data...

Documentation

Showing up to 5 results
|